When you browse on this site, cookies collect data to enhance your experience and personalize the content and advertising you see.
Visit our Privacy Policy to learn more. By continuing to use the site, you agree to this use of cookies and data.
  • In France
  • List of Countries
  • For 7 days
  • Water Temperature
  • Satellite Maps
  • Weather Map
  • Weather Widgets
  • user-avatar
    Login

    Hourly Weather Zolotovo

    Today, 20 November, Tuesday

    Time Temperature Precipitation Wind Pressure Humidity
    00:00 -3°C° 0 mm 2 mps 767 mmHg 85%
    01:00 -1°C° 0 mm 1 mps 767 mmHg 86%
    02:00 -2°C° 0 mm 1 mps 767 mmHg 89%
    03:00 -2°C° 0 mm 1 mps 766 mmHg 90%
    04:00 -2°C° 0 mm 1 mps 766 mmHg 90%
    05:00 -3°C° 0 mm 1 mps 766 mmHg 90%
    06:00 -3°C° 0 mm 1 mps 766 mmHg 90%
    07:00 -3°C° 0 mm 1 mps 766 mmHg 90%
    08:00 -4°C° 0 mm 0 mps 765 mmHg 89%
    09:00 -3°C° 0 mm 0 mps 765 mmHg 84%
    10:00 -2°C° 0 mm 0 mps 765 mmHg 79%
    11:00 -2°C° 0 mm 0 mps 765 mmHg 74%
    12:00 -1°C° 0 mm 0 mps 764 mmHg 72%
    13:00 0°C° 0 mm 1 mps 764 mmHg 70%
    14:00 0°C° 0 mm 1 mps 764 mmHg 68%
    15:00 0°C° 0 mm 1 mps 764 mmHg 72%
    16:00 -1°C° 0 mm 1 mps 764 mmHg 75%
    17:00 -1°C° 0 mm 1 mps 764 mmHg 79%
    18:00 -1°C° 0 mm 1 mps 763 mmHg 79%
    19:00 -1°C° 0 mm 1 mps 763 mmHg 79%
    20:00 -2°C° 0 mm 1 mps 763 mmHg 79%
    21:00 -2°C° 0 mm 1 mps 763 mmHg 79%
    22:00 -2°C° 0 mm 1 mps 763 mmHg 79%
    23:00 -2°C° 0 mm 1 mps 763 mmHg 79%

    Tomorrow, 21 November, Wednesday

    Time Temperature Precipitation Wind Pressure Humidity
    00:00 -2°C° 0 mm 1 mps 763 mmHg 81%
    01:00 -2°C° 0 mm 1 mps 763 mmHg 83%
    02:00 -2°C° 0 mm 1 mps 763 mmHg 84%
    03:00 -1°C° 0 mm 1 mps 763 mmHg 86%
    04:00 -1°C° 0 mm 1 mps 763 mmHg 88%
    05:00 -1°C° 0 mm 1 mps 763 mmHg 90%
    06:00 0°C° 0 mm 1 mps 763 mmHg 91%
    07:00 0°C° 0 mm 1 mps 763 mmHg 92%
    08:00 0°C° 0 mm 1 mps 763 mmHg 93%
    09:00 +1°C° 0 mm 1 mps 763 mmHg 90%
    10:00 +1°C° 0 mm 1 mps 763 mmHg 87%
    11:00 +2°C° 0 mm 1 mps 763 mmHg 84%
    12:00 +2°C° 0 mm 1 mps 763 mmHg 83%
    13:00 +2°C° 0 mm 1 mps 763 mmHg 81%
    14:00 +2°C° 0 mm 1 mps 763 mmHg 79%
    15:00 +1°C° 0 mm 1 mps 763 mmHg 84%
    16:00 0°C° 0 mm 1 mps 763 mmHg 88%
    17:00 -1°C° 0 mm 1 mps 763 mmHg 92%
    18:00 -1°C° 0 mm 1 mps 763 mmHg 93%
    19:00 -1°C° 0 mm 1 mps 763 mmHg 94%
    20:00 -1°C° 0 mm 1 mps 763 mmHg 95%
    21:00 -2°C° 0 mm 1 mps 763 mmHg 95%
    22:00 -2°C° 0 mm 1 mps 763 mmHg 95%
    23:00 -2°C° 0 mm 1 mps 763 mmHg 95%

    Day after tomorrow, 22 November, Thursday

    Time Temperature Precipitation Wind Pressure Humidity
    00:00 -2°C° 0 mm 1 mps 763 mmHg 95%
    01:00 -2°C° 0 mm 1 mps 763 mmHg 95%
    02:00 -4°C° 0 mm 2 mps 763 mmHg 95%
    03:00 -4°C° 0 mm 2 mps 762 mmHg 95%
    04:00 -4°C° 0 mm 2 mps 762 mmHg 94%
    05:00 -4°C° 0 mm 2 mps 762 mmHg 94%
    06:00 -4°C° 0 mm 2 mps 762 mmHg 93%
    07:00 -4°C° 0 mm 2 mps 761 mmHg 93%
    08:00 -4°C° 0 mm 2 mps 761 mmHg 92%
    09:00 -4°C° 0 mm 3 mps 761 mmHg 88%
    10:00 -2°C° 0 mm 3 mps 761 mmHg 83%
    11:00 -2°C° 0 mm 3 mps 760 mmHg 79%
    12:00 -1°C° 0 mm 3 mps 760 mmHg 78%
    13:00 -1°C° 0 mm 3 mps 760 mmHg 78%
    14:00 -2°C° 0 mm 4 mps 760 mmHg 78%
    15:00 -2°C° 0 mm 4 mps 760 mmHg 82%
    16:00 -2°C° 0 mm 3 mps 759 mmHg 86%
    17:00 -2°C° 0 mm 3 mps 759 mmHg 90%
    18:00 -1°C° 0 mm 3 mps 759 mmHg 88%
    19:00 -1°C° 0 mm 3 mps 759 mmHg 87%
    20:00 -1°C° 0 mm 4 mps 759 mmHg 85%
    21:00 -1°C° 0 mm 3 mps 760 mmHg 87%
    22:00 -1°C° 0 mm 3 mps 760 mmHg 88%
    23:00 -1°C° 0 mm 2 mps 760 mmHg 90%

    23 November, Friday

    Time Temperature Precipitation Wind Pressure Humidity
    00:00 -1°C° 0 mm 2 mps 760 mmHg 91%
    01:00 -1°C° 0 mm 2 mps 760 mmHg 93%
    02:00 -2°C° 0 mm 2 mps 761 mmHg 94%
    03:00 -2°C° 0 mm 2 mps 761 mmHg 94%
    04:00 +1°C° 0 mm 1 mps 761 mmHg 94%
    05:00 +1°C° 0 mm 1 mps 761 mmHg 94%
    06:00 +1°C° 0 mm 1 mps 761 mmHg 94%
    07:00 +1°C° 0 mm 1 mps 761 mmHg 94%
    08:00 +1°C° 0 mm 1 mps 761 mmHg 94%
    09:00 +1°C° 0 mm 1 mps 761 mmHg 92%
    10:00 +1°C° 0 mm 1 mps 761 mmHg 90%
    11:00 +1°C° 0 mm 2 mps 762 mmHg 88%
    12:00 +1°C° 0 mm 2 mps 761 mmHg 87%
    13:00 +1°C° 0 mm 2 mps 761 mmHg 86%
    14:00 +1°C° 0 mm 2 mps 761 mmHg 85%
    15:00 +1°C° 0 mm 2 mps 761 mmHg 86%
    16:00 -1°C° 0 mm 3 mps 761 mmHg 87%
    17:00 -1°C° 0 mm 3 mps 760 mmHg 87%
    18:00 -1°C° 0 mm 3 mps 760 mmHg 87%
    19:00 -1°C° 0 mm 3 mps 760 mmHg 87%
    20:00 -1°C° 0 mm 3 mps 759 mmHg 87%
    21:00 -2°C° 0 mm 3 mps 759 mmHg 86%
    22:00 -2°C° 0 mm 3 mps 759 mmHg 86%
    23:00 -2°C° 0 mm 3 mps 758 mmHg 86%

    24 November, Saturday

    Time Temperature Precipitation Wind Pressure Humidity
    00:00 -2°C° 0 mm 3 mps 758 mmHg 86%
    01:00 -4°C° 0 mm 3 mps 758 mmHg 86%
    02:00 -4°C° 0 mm 3 mps 757 mmHg 86%
    03:00 -5°C° 0 mm 3 mps 757 mmHg 85%
    04:00 -5°C° 0 mm 3 mps 756 mmHg 84%
    05:00 -5°C° 0 mm 3 mps 756 mmHg 83%
    06:00 -5°C° 0 mm 3 mps 755 mmHg 83%
    07:00 -5°C° 0 mm 3 mps 755 mmHg 83%
    08:00 -5°C° 0 mm 3 mps 755 mmHg 83%
    09:00 -5°C° 0 mm 3 mps 754 mmHg 81%
    10:00 -4°C° 0 mm 3 mps 754 mmHg 79%
    11:00 -4°C° 0 mm 3 mps 754 mmHg 78%
    12:00 -2°C° 0 mm 2 mps 754 mmHg 78%
    13:00 -2°C° 0 mm 2 mps 754 mmHg 77%
    14:00 -2°C° 0 mm 2 mps 754 mmHg 77%
    15:00 -2°C° 0 mm 2 mps 754 mmHg 79%
    16:00 -2°C° 0 mm 2 mps 754 mmHg 80%
    17:00 -2°C° 0 mm 2 mps 753 mmHg 82%
    18:00 0°C° 0 mm 1 mps 753 mmHg 83%
    19:00 0°C° 0 mm 1 mps 754 mmHg 84%
    20:00 0°C° 0 mm 1 mps 754 mmHg 85%
    21:00 0°C° 0 mm 1 mps 754 mmHg 86%
    22:00 0°C° 0 mm 1 mps 754 mmHg 87%
    23:00 0°C° 0 mm 1 mps 754 mmHg 88%

    25 November, Sunday

    Time Temperature Precipitation Wind Pressure Humidity
    00:00 0°C° 0 mm 1 mps 754 mmHg 89%
    01:00 0°C° 0 mm 1 mps 754 mmHg 90%
    02:00 0°C° 0 mm 1 mps 754 mmHg 91%
    03:00 0°C° 0 mm 1 mps 754 mmHg 91%
    04:00 0°C° 0 mm 1 mps 754 mmHg 91%
    05:00 0°C° 0 mm 1 mps 754 mmHg 92%
    06:00 0°C° 0 mm 1 mps 754 mmHg 92%
    07:00 0°C° 0 mm 1 mps 755 mmHg 92%
    08:00 0°C° 0 mm 1 mps 755 mmHg 92%
    09:00 0°C° 0 mm 1 mps 755 mmHg 89%
    10:00 +1°C° 0 mm 1 mps 755 mmHg 86%
    11:00 +1°C° 0 mm 1 mps 755 mmHg 83%
    12:00 +1°C° 0 mm 1 mps 755 mmHg 82%
    13:00 +1°C° 0 mm 1 mps 755 mmHg 82%
    14:00 +1°C° 0 mm 1 mps 755 mmHg 81%
    15:00 0°C° 0 mm 1 mps 755 mmHg 84%
    16:00 0°C° 0 mm 1 mps 755 mmHg 86%
    17:00 -1°C° 0 mm 1 mps 754 mmHg 89%
    18:00 -1°C° 0 mm 1 mps 754 mmHg 88%
    19:00 -1°C° 0 mm 1 mps 754 mmHg 88%
    20:00 -1°C° 0 mm 1 mps 754 mmHg 87%
    21:00 -1°C° 0 mm 1 mps 754 mmHg 87%
    22:00 -3°C° 0 mm 0 mps 754 mmHg 87%
    23:00 -3°C° 0 mm 0 mps 754 mmHg 87%
    Show more